sat.trackr.live / text

‹ back to catalog

STARLINK-33989

NORAD 63929 · 2025-098D

PAYLOAD ACTIVE UNKNOWN

§ Identity

Operator
Country
US
Launch date
2025-05-13
Launch site
AFWTR
Launch vehicle
Mass (kg)
RCS (m²)

Purposes: comms

External: N2YO · Heavens-Above · Gunter

§ Orbital elements

Epoch: 2026-05-25T03:29:49.636032Z

Period
96.11 min
Inclination
70.0007°
Eccentricity
0.0003349
Mean motion
14.98331862 rev/d
Perigee alt
569.7 km
Apogee alt
574.4 km
Semi-major
6,950.2 km
B*
9.3580e-5
RAAN
81.7325°
Arg perigee
265.5515°
Mean anomaly
94.5261°
Rev number
5,802

§ Raw data

STARLINK-339891 63929U 25098D   26145.14571338  .00001024  00000+0  93580-4 0  99982 63929  70.0007  81.7325 0003349 265.5515  94.5261 14.98331862 58026

JSON: /api/v1/satellites/63929 · /tle

For live sub-satellite position, see the globe view (requires WebGL).

§ Visibility from observer

Set your observer location to see the next 7 days of passes ≥ 10°. The values pass through the URL so the page stays shareable.

No JS? Fill the form by hand. The geolocation button needs JavaScript.